www.pogodaiklimat.ru

Погода и климат >> Архив погоды >> Канада >> Нунавут >> Холл Бич


ПОГОДА в Холл Бич

  • Прогноз погоды в Холл Бич
  • Монитор погоды в Холл Бич

АРХИВ ПОГОДЫ в Холл Бич

Время (UTC), дата Ветер
(напр.,м/с)
 
Видим.   Явления Облачность Т
(С)
Тd
(С)
f
(%)
Тe
(С)
Тes
(С)
Комфортность P
(гПа)
Po
(гПа)
Тmin
(С)
Tmax
(С)
R
(мм)
R24
(мм)
S
(см)
12 17.01 СЗ 5 н/о н/о -36.7 -40.1 71 -51 -51 опасность
обморожения
1012.6 1012.6 -38.1 -36.8 10
15 17.01 СЗ 6 н/о н/о -36.5 -40.0 70 -52 -52 опасность
обморожения
1013.9 1013.9
18 17.01 СЗ 6 н/о н/о -35.7 -39.0 72 -51 -51 опасность
обморожения
1015.0 1015.0 -39.7 -35.7
21 17.01 СЗ 6 н/о н/о -35.8 -39.1 71 -51 -51 опасность
обморожения
1016.1 1016.1
00 18.01 СЗ 6 н/о н/о -35.7 -39.0 72 -50 -50 опасность
обморожения
1017.1 1017.1 -37.9 -35.3
03 18.01 СЗ 6 н/о н/о -37.1 -40.6 70 -53 -53 опасность
обморожения
1017.2 1017.2
06 18.01 СЗ 6 н/о н/о -36.0 -39.4 71 -51 -51 опасность
обморожения
1017.1 1017.1 -37.9 -35.3
09 18.01 СЗ 6 н/о н/о -37.3 -40.8 70 -52 -52 опасность
обморожения
1017.3 1017.3
12 18.01 СЗ 5 н/о н/о -37.8 -41.3 70 -52 -52 опасность
обморожения
1017.1 1017.1 -37.8 -35.3 10
15 18.01 СЗ 5 н/о н/о -36.7 -40.1 71 -50 -50 опасность
обморожения
1016.7 1016.7
18 18.01 З 9 н/о н/о -35.0 -38.2 72 -53 -53 опасность
обморожения
1015.7 1015.7 -38.5 -35.0
21 18.01 З 11 н/о н/о -34.4 -37.6 73 -53 -53 опасность
обморожения
1014.3 1014.3
00 19.01 З 10 н/о н/о -30.8 -33.6 76 -48 -48 опасность
обморожения
1012.6 1012.6 -38.5 -30.7
03 19.01 З 10 н/о н/о -28.8 -31.3 79 -45 -45 опасность
обморожения
1009.6 1009.6
06 19.01 З 12 н/о н/о -28.6 -31.1 79 -46 -46 опасность
обморожения
1007.0 1007.0 -38.5 -28.6 6
09 19.01 З 7 н/о н/о -30.1 -32.8 77 -44 -44 опасность
обморожения
1005.0 1005.0
12 19.01 З 5 н/о н/о -29.3 -31.9 78 -42 -42 опасность
обморожения
1003.1 1003.1 -30.9 -28.6 10
15 19.01 З 4 н/о н/о -30.6 -33.3 77 -41 -41 опасность
обморожения
1000.9 1000.9
18 19.01 ЮЗ 4 н/о н/о -28.9 -31.4 79 -40 -40 опасность
обморожения
998.8 998.8 -35.0 -28.3
21 19.01 ЮЗ 3 н/о н/о -27.4 -29.7 81 -37 -37 опасность
обморожения
997.2 997.2 0.2
00 20.01 З 4 н/о {осадки} н/о -27.5 -29.9 80 -38 -38 опасность
обморожения
996.3 996.3 -30.7 -26.1 0.2
03 20.01 З 5 н/о н/о -29.8 -32.4 78 -42 -42 опасность
обморожения
995.5 995.5
06 20.01 З 6 н/о н/о -32.3 -35.2 75 -47 -47 опасность
обморожения
995.1 995.1 -32.3 -26.1 7
09 20.01 З 6 н/о н/о -33.9 -37.0 73 -49 -49 опасность
обморожения
996.0 996.0
12 20.01 З 8 н/о н/о -34.1 -37.2 73 -50 -50 опасность
обморожения
996.8 996.8 -34.1 -26.1 10
15 20.01 З 6 н/о н/о -35.5 -38.7 72 -51 -51 опасность
обморожения
996.9 996.9
18 20.01 З 7 н/о н/о -35.3 -38.5 72 -51 -51 опасность
обморожения
997.5 997.5 -35.8 -32.3
21 20.01 З 3 н/о н/о -37.4 -41.0 69 -48 -48 опасность
обморожения
998.7 998.7 0.2
00 21.01 З 2 н/о {осадки} н/о -34.1 -37.2 73 -41 -41 опасность
обморожения
999.4 999.4 -37.8 -33.4 0.2
03 21.01 Ю 2 н/о н/о -34.3 -37.4 73 -43 -43 опасность
обморожения
999.9 999.9
06 21.01 С 3 н/о н/о -32.5 -35.4 75 -42 -42 опасность
обморожения
999.7 999.7 -37.8 -32.3 12
09 21.01 ЮВ 5 н/о н/о -28.9 -31.4 79 -41 -41 опасность
обморожения
999.9 999.9
12 21.01 ЮЗ 3 н/о н/о -34.9 -38.1 72 -45 -45 опасность
обморожения
1000.6 1000.6 -35.2 -32.3 10
15 21.01 З 5 н/о н/о -39.7 -43.4 68 -54 -54 опасность
обморожения
1001.5 1001.5
18 21.01 СЗ 5 н/о н/о -40.5 -44.4 66 -56 -56 опасность
обморожения
1002.8 1002.8 -40.5 -28.8
21 21.01 СЗ 6 н/о н/о -40.8 -44.7 66 -57 -57 опасность
обморожения
1003.8 1003.8
00 22.01 СЗ 6 н/о н/о -40.6 -44.5 66 -57 -57 опасность
обморожения
1004.1 1004.1 -41.0 -34.9
03 22.01 СЗ 7 н/о н/о -38.8 -42.5 68 -56 -56 опасность
обморожения
1003.8 1003.8
06 22.01 З 7 н/о н/о -36.9 -40.4 70 -54 -54 опасность
обморожения
1003.5 1003.5 -41.0 -28.8
09 22.01 З 6 н/о н/о -35.7 -39.0 72 -51 -51 опасность
обморожения
1003.1 1003.1
12 22.01 З 6 н/о н/о -36.4 -39.8 71 -52 -52 опасность
обморожения
1002.7 1002.7 -40.6 -28.8 10
15 22.01 З 7 н/о н/о -35.8 -39.1 71 -52 -52 опасность
обморожения
1001.8 1001.8
18 22.01 З 8 н/о н/о -36.0 -39.4 71 -53 -53 опасность
обморожения
1001.2 1001.2 -41.0 -35.6
21 22.01 З 8 н/о н/о -36.1 -39.4 71 -53 -53 опасность
обморожения
1001.4 1001.4
00 23.01 ЮЗ 6 н/о н/о -38.4 -42.1 68 -54 -54 опасность
обморожения
1002.2 1002.2 -38.4 -35.6
03 23.01 ЮЗ 4 н/о н/о -41.2 -45.1 66 -55 -55 опасность
обморожения
1002.4 1002.4
06 23.01 ЮЗ 4 н/о н/о -39.8 -43.6 67 -53 -53 опасность
обморожения
1003.4 1003.4 -41.3 -35.6 20
09 23.01 З 4 н/о н/о -41.1 -45.1 65 -55 -55 опасность
обморожения
1003.8 1003.8
12 23.01 З 3 н/о н/о -41.2 -45.1 66 -53 -53 опасность
обморожения
1004.2 1004.2 -42.2 -35.6 10
15 23.01 З 3 н/о н/о -41.5 -45.6 64 -52 -52 опасность
обморожения
1004.3 1004.3
18 23.01 СЗ 3 н/о н/о -39.2 -43.0 67 -51 -51 опасность
обморожения
1005.4 1005.4 -43.0 -39.2
21 23.01 СЗ 3 н/о н/о -40.2 -44.1 66 -52 -52 опасность
обморожения
1006.8 1006.8
00 24.01 ЮВ 4 н/о н/о -35.0 -38.3 72 -48 -48 опасность
обморожения
1007.9 1007.9 -43.0 -34.4
03 24.01 ЮВ 5 н/о н/о -35.1 -38.4 72 -48 -48 опасность
обморожения
1008.9 1008.9
06 24.01 ЮВ 5 н/о н/о -33.9 -37.0 73 -47 -47 опасность
обморожения
1010.3 1010.3 -43.0 -33.9 23
09 24.01 ЮВ 4 н/о н/о -35.8 -39.1 71 -49 -49 опасность
обморожения
1011.8 1011.8

 

Местоположение метеостанции Холл Бич (Нунавут, Канада): широта 68.78 долгота -81.25 высота над уровнем моря 8 м.

В архиве по умолчанию представлена погода в Холл Бич за последнюю неделю. Архивные данные за месяц целиком и за предыдущие месяцы, начиная с января 2011 года, Вы можете получить, выбрав интересующий диапазон дат из раскрывающегося списка и нажав кнопку "Ввод!".


*Определитесь, кто Вы:
робот инопланетянин человек

Внимание! Время в таблицах - всемирное. Для получения местного времени необходимо прибавить поправку, которая равна -5 ч.

Смотрите также архив погоды в соседних городах и на ближайших метеорологических станциях:

Погода на Острове Роули (Нунавут, Канада) (95 км)
Погода в Лонгстафф-Блаффе (Нунавут, Канада) (246 км)
Погода в Кам Фор (Нунавут, Канада) (345 км)
Погода в Кугааруке (Нунавут, Канада) (347 км)
Погода в Делавер-Лейксе (Нунавут, Канада) (407 км)
Погода в Понд-Инлете (Нунавут, Канада) (450 км)
Погода в Понд-Инлете (Нунавут, Канада) (452 км)
Погода в Вейджер Бэй (Нунавут, Канада) (476 км)
Погода в Арктик Бей (Нунавут, Канада) (489 км)
Погода в Шеперд-Бее (Нунавут, Канада) (489 км)

Пояснения к столбцам:

Ветер - указаны скорость ветра в м/с - средняя за 10 мин, порывы в срок и между сроками (в фигурных скобках) и направление, откуда дует ветер: С - северный, СВ - северо-восточный, В - восточный, ЮВ - юго-восточный, Ю - южный, ЮЗ - юго-западный, З - западный, СЗ - северо-западный.
Видимость - горизонтальная дальность видимости в метрах или километрах. При видимости от 1 до 10 км при отсутствии осадков обычно наблюдается дымка, при ухудшении видимости до 1 км и менее - туман. В сухую погоду видимость может ухудшаться дымом, пылью или мглою.
Явления - указаны атмосферные явления, наблюдавшиеся в срок или в последний час перед сроком; фигурными скобками обозначены явления, наблюдавшиеся между сроками (за 1-3 часа до срока); квадратными скобками обозначены град или гололедные отложения с указанием их диаметра в мм.
Облачность - указаны через наклонную черту общая и нижняя облачность в баллах и высота нижней границы облаков в метрах; квадратными скобками обозначены формы облаков: Ci - перистые, Cs - перисто-слоистые, Cc - перисто-кучевые, Ac - высококучевые, As - высокослоистые, Sc - слоисто-кучевые, Ns - слоисто-дождевые, Cu - кучевые, Cb - кучево-дождевые. Подробнее классификацию облаков см. в Атласе облаков (PDF).
T - Температура воздуха - температура, измеренная на высоте 2 м над землей.
Td - Температура точки росы - температура, при понижении до которой содержащийся в воздухе водяной пар достигнет насыщения.
f - Относительная влажность воздуха - влажноcть воздуха, измеренная на высоте 2 м над землей.
Te - Эффективная температура - температура, которую ощущает одетый по сезону человек в тени. Характеристика душности погоды. При расчете учитывается влияние влажности воздуха и скорости ветра на теплоощущения человека.
Tes - Эффективная температура на солнце - температура, которую ощущает человек, с поправкой на солнечный нагрев. Характеристика знойности погоды. Зависит от высоты солнца над горизонтом, облачности и скорости ветра. Ночью, в пасмурную погоду, а также при ветре 12 м/с и более поправка равна нулю.
P - Атмосферное давление - приведенное к уровню моря атмосферное давление.
Po - Атмосферное давление - измеренное на уровне метеостанции атмосферное давление.
Tmin - Минимальная температура - минимум температуры воздуха на высоте 2 м над землей.
Tmax - Максимальная температура - максимум температуры воздуха на высоте 2 м над землей.
R - Количество осадков - Количество выпавших осадков за период времени, мм. При наведении курсора мыши на число - период времени, за который выпало указанное количество осадков.
R24 - Количество осадков - Количество выпавших осадков за 24 часа, мм.
S - Снежный покров - Высота снежного покрова, см. При наведении курсора мыши на число - состояние снежного покрова и степень покрытия местности в баллах.